Caldwell, NJ

1:51 AM EST on February 14, 2016 (GMT -0500)
Essex County

Weather History for KCDW - July, 2013

Change the Weather History Date:

Wednesday, July 24, 2013

  Actual Average Record
Temperature  
Mean Temperature 72 °F -  
Max Temperature 80 °F 84 °F 100 °F (1955)
Min Temperature 66 °F 60 °F 50 °F (1950)
Cooling Degree Days 8    
Growing Degree Days 22 (Base 50)    
Moisture  
Dew Point 62 °F    
Average Humidity 66    
Maximum Humidity 93    
Minimum Humidity 46    
Precipitation  
Precipitation 0.00 in - - ()
Sea Level Pressure  
Sea Level Pressure 29.78 in    
Wind  
Wind Speed 4 mph (NW)    
Max Wind Speed 12 mph    
Max Gust Speed -    
Visibility 10 miles    
Events      
Averages and records for this station are not official NWS values.
T = Trace of Precipitation, MM = Missing Value Source: NWS Daily Summary

Daily Weather History Graph

Daily Weather History Graph

Search for Another Location

Airport or City:

Trip Planner

Search our weather history database for the weather conditions in past years. The results will help you decide how hot, cold, wet, or windy it might be!

Date:

Astronomy

Jul. 24, 2013 Rise Set
Actual Time 5:46 AM EDT 8:20 PM EDT
Civil Twilight 5:14 AM EDT 8:52 PM EDT
Nautical Twilight 4:35 AM EDT 9:31 PM EDT
Astronomical Twilight 3:50 AM EDT 10:15 PM EDT
Moon 9:23 PM EDT (7/24) 8:04 AM EDT (7/24)
Length of Visible Light 15h 37m
Length of Day
14h 34m
Waning Gibbous, 95% of the Moon is Illuminated
Jul 24
Waning Gibbous
Jul 29
Last Quarter
Aug 6
New
Aug 14
First Quarter
Aug 20
Full

Hourly Weather History & Observations

Time (EDT) Temp. Dew Point Humidity Pressure Visibility Wind Dir Wind Speed Gust Speed Precip Events Conditions
12:53 AM 73.9 °F 68.0 °F 82% 29.66 in 10.0 mi Calm Calm - N/A   Clear
1:53 AM 73.0 °F 68.0 °F 84% 29.65 in 10.0 mi SSW 3.5 mph - N/A   Clear
2:53 AM 72.0 °F 68.0 °F 87% 29.65 in 10.0 mi Calm Calm - N/A   Partly Cloudy
3:53 AM 71.1 °F 66.9 °F 87% 29.65 in 10.0 mi Calm Calm - N/A   Clear
4:53 AM 71.1 °F 68.0 °F 90% 29.65 in 10.0 mi Calm Calm - N/A   Clear
5:53 AM 70.0 °F 68.0 °F 93% 29.67 in 10.0 mi Calm Calm - N/A   Clear
6:53 AM 72.0 °F 66.9 °F 84% 29.69 in 10.0 mi Calm Calm - N/A   Clear
7:53 AM 73.9 °F 64.0 °F 71% 29.72 in 10.0 mi Variable 3.5 mph - N/A   Clear
8:53 AM 77.0 °F 64.0 °F 64% 29.73 in 10.0 mi NNW 8.1 mph - N/A   Clear
9:53 AM 78.1 °F 64.9 °F 64% 29.74 in 10.0 mi NW 5.8 mph - N/A   Clear
10:53 AM 77.0 °F 64.9 °F 66% 29.78 in 10.0 mi WNW 11.5 mph - N/A   Mostly Cloudy
11:34 AM 77.0 °F 62.6 °F 61% 29.78 in 10.0 mi NNW 10.4 mph - N/A   Mostly Cloudy
11:53 AM 77.0 °F 63.0 °F 62% 29.80 in 10.0 mi NNW 8.1 mph - N/A   Scattered Clouds
12:53 PM 78.1 °F 62.1 °F 58% 29.80 in 10.0 mi Variable 6.9 mph - N/A   Clear
1:53 PM 78.1 °F 61.0 °F 56% 29.80 in 10.0 mi WNW 10.4 mph - N/A   Clear
2:53 PM 79.0 °F 59.0 °F 50% 29.82 in 10.0 mi NW 9.2 mph - N/A   Clear
3:53 PM 78.1 °F 59.0 °F 52% 29.82 in 10.0 mi Variable 6.9 mph - N/A   Mostly Cloudy
4:53 PM 79.0 °F 59.0 °F 50% 29.81 in 10.0 mi NW 8.1 mph - N/A   Clear
5:53 PM 78.1 °F 57.9 °F 50% 29.83 in 10.0 mi Variable 6.9 mph - N/A   Mostly Cloudy
6:53 PM 78.1 °F 55.9 °F 46% 29.85 in 10.0 mi NW 9.2 mph - N/A   Clear
7:53 PM 73.9 °F 55.0 °F 52% 29.88 in 10.0 mi NNW 6.9 mph - N/A   Clear
8:53 PM 71.1 °F 55.0 °F 57% 29.91 in 10.0 mi Variable 3.5 mph - N/A   Clear
9:53 PM 69.1 °F 54.0 °F 58% 29.94 in 10.0 mi NNW 3.5 mph - N/A   Scattered Clouds
10:53 PM 66.9 °F 52.0 °F 59% 29.96 in 10.0 mi Variable 3.5 mph - N/A   Mostly Cloudy
11:53 PM 66.0 °F 52.0 °F 60% 29.98 in 10.0 mi Variable 3.5 mph - N/A   Scattered Clouds